Regional Weather Roundup
Issued by NWS

Home | Current Version | Previous Version | Graphics & Text | Print | Product List | Glossary On
Versions: 1 2 3 4 5 6 7 8 9 10 11 12 13 14 15 16 17 18 19 20 21 22 23 24 25 26 27 28 29 30 31 32 33 34 35 36 37 38 39 40 41 42 43 44 45 46 47 48 49 50
000
ASUS44 KMEG 291400
RWRTN
TENNESSEE HOURLY STATE WEATHER ROUNDUP
NATIONAL WEATHER SERVICE MEMPHIS TN
900 AM CDT FRI APR 29 2016

TNZ002-004-019-021-049-052-054-088>092-291500-
WEST TENNESSEE

CITY           SKY/WX    TMP DP  RH WIND       PRES   REMARKS
MEMPHIS INTL   CLOUDY    71  52  50 E9G18     29.91S
NWS MEMPHIS      N/A     67 N/A N/A MISG        N/A
JACKSON        CLOUDY    66  56  70 E6        29.97F
DYERSBURG      CLOUDY    63  52  67 E12       29.98F
UNION CITY     SUNNY     61  55  82 E8        29.99F
LEXINGTON      SUNNY     64  57  77 CALM      29.99S
$$

TNZ008-025-027-028-033-062-065-066-291500-
NORTH MIDDLE TENNESSEE

CITY           SKY/WX    TMP DP  RH WIND       PRES   REMARKS
NASHVILLE      PTSUNNY   70  55  59 CALM      30.03F
CLARKSVILLE    MOSUNNY   64  54  69 E8        30.03F
COOKEVILLE     SUNNY     70  57  64 CALM      30.04R
CROSSVILLE     SUNNY     70  48  45 NE6       30.09R
$$

TNZ061-075-076-078-094-096-097-291500-
SOUTH MIDDLE TENNESSEE

CITY           SKY/WX    TMP DP  RH WIND       PRES   REMARKS
TULLAHOMA      SUNNY     70  52  52 CALM      30.05S
WINCHESTER     SUNNY     73  52  46 SE6       30.04S
MCMINNVILLE    SUNNY     70  57  64 NE3       30.05R
COLUMBIA       SUNNY     68  68 100 CALM      30.01S
SHELBYVILLE    SUNNY     72  57  60 E3        30.04S
$$

TNZ017-018-042-046-047-291500-
NORTHEAST TENNESSEE

CITY           SKY/WX    TMP DP  RH WIND       PRES   REMARKS
TRI CITIES     CLOUDY    66  57  72 SW5       30.06S
$$

TNZ012-013-036-069-073-074-291500-
CENTRAL EAST TENNESSEE

CITY           SKY/WX    TMP DP  RH WIND       PRES   REMARKS
KNOXVILLE      CLOUDY    70  55  59 CALM      30.04S
OAK RIDGE      CLOUDY    71  54  54 CALM      30.05F
GATLINBURG     SUNNY     68  55  64 CALM      30.04F
$$

TNZ083-085-099-291500-
SOUTHEAST TENNESSEE

CITY           SKY/WX    TMP DP  RH WIND       PRES   REMARKS
CHATTANOOGA    PTSUNNY   71  54  54 N3        30.06R
$$

SKY/WX REPORTED AS FAIR MEANS FEW OR NO CLOUDS BELOW
12 THOUSAND FEET.





USA.gov is the U.S. government's official web portal to all federal, state and local government web resources and services.